TimeEDT,TemperatureF,Dew PointF,Humidity,Sea Level PressureIn,VisibilityMPH,Wind Direction,Wind SpeedMPH,Gust SpeedMPH,PrecipitationIn,Events,Conditions,WindDirDegrees,DateUTC
12:13 AM,58.5,45.5,62,30.11,10.0,South,8.1,-,N/A,,Clear,170,2013-06-20 04:13:00
12:34 AM,58.3,46.9,66,30.12,10.0,South,6.9,-,N/A,,Clear,180,2013-06-20 04:34:00
12:54 AM,57.2,46.8,68,30.11,10.0,SSW,8.1,-,N/A,,Clear,200,2013-06-20 04:54:00
1:13 AM,57.4,45.7,65,30.11,10.0,SSW,6.9,-,N/A,,Clear,210,2013-06-20 05:13:00
1:34 AM,58.1,46.4,65,30.10,10.0,SSW,8.1,-,N/A,,Clear,200,2013-06-20 05:34:00
1:54 AM,58.5,46.2,64,30.10,10.0,SSW,9.2,-,N/A,,Clear,200,2013-06-20 05:54:00
2:13 AM,59.2,44.8,59,30.10,10.0,South,8.1,-,N/A,,Clear,190,2013-06-20 06:13:00
2:34 AM,59.9,43.7,55,30.10,10.0,South,9.2,-,N/A,,Clear,190,2013-06-20 06:34:00
2:54 AM,59.4,43.9,57,30.11,10.0,South,8.1,-,N/A,,Clear,190,2013-06-20 06:54:00
3:13 AM,59.4,43.2,55,30.11,10.0,South,8.1,-,N/A,,Clear,190,2013-06-20 07:13:00
3:34 AM,59.4,42.8,54,30.11,10.0,South,9.2,-,N/A,,Clear,190,2013-06-20 07:34:00
3:54 AM,59.2,43.5,56,30.11,10.0,South,10.4,-,N/A,,Clear,180,2013-06-20 07:54:00
4:13 AM,59.0,44.8,59,30.11,10.0,South,10.4,-,N/A,,Clear,180,2013-06-20 08:13:00
4:34 AM,58.5,46.6,65,30.11,10.0,South,10.4,-,N/A,,Clear,170,2013-06-20 08:34:00
4:53 AM,57.2,47.7,70,30.11,10.0,South,9.2,-,N/A,,Clear,180,2013-06-20 08:53:00
5:14 AM,57.2,47.3,69,30.11,10.0,South,9.2,-,N/A,,Clear,180,2013-06-20 09:14:00
5:34 AM,57.2,47.7,70,30.12,10.0,South,9.2,-,N/A,,Clear,190,2013-06-20 09:34:00
5:53 AM,56.7,47.5,71,30.12,10.0,SSW,9.2,-,N/A,,Clear,200,2013-06-20 09:53:00
6:14 AM,57.0,46.8,69,30.12,10.0,South,9.2,-,N/A,,Clear,190,2013-06-20 10:14:00
6:34 AM,57.2,46.8,68,30.13,10.0,South,9.2,-,N/A,,Scattered Clouds,190,2013-06-20 10:34:00
6:53 AM,57.7,46.8,67,30.13,10.0,South,10.4,-,N/A,,Overcast,190,2013-06-20 10:53:00
7:14 AM,58.3,46.2,64,30.13,10.0,South,11.5,-,N/A,,Overcast,190,2013-06-20 11:14:00
7:34 AM,59.2,46.0,62,30.13,10.0,South,10.4,-,N/A,,Overcast,190,2013-06-20 11:34:00
7:53 AM,59.5,46.4,62,30.13,10.0,SSW,10.4,-,N/A,,Overcast,200,2013-06-20 11:53:00
8:14 AM,61.2,46.6,59,30.13,10.0,SSW,9.2,-,N/A,,Scattered Clouds,200,2013-06-20 12:14:00
8:34 AM,62.6,46.2,55,30.14,10.0,SSW,6.9,-,N/A,,Scattered Clouds,210,2013-06-20 12:34:00
8:53 AM,62.8,45.9,54,30.14,10.0,SW,6.9,-,N/A,,Overcast,220,2013-06-20 12:53:00
9:14 AM,64.4,43.9,47,30.14,10.0,SW,5.8,-,N/A,,Overcast,230,2013-06-20 13:14:00
9:34 AM,64.8,45.1,49,30.15,10.0,SW,6.9,-,N/A,,Overcast,230,2013-06-20 13:34:00
9:53 AM,63.9,45.0,50,30.15,10.0,WSW,6.9,-,N/A,,Overcast,250,2013-06-20 13:53:00
10:14 AM,64.4,43.2,46,30.15,10.0,WSW,8.1,-,N/A,,Overcast,240,2013-06-20 14:14:00
10:34 AM,64.8,43.0,45,30.15,10.0,WSW,8.1,18.4,N/A,,Overcast,250,2013-06-20 14:34:00
10:53 AM,65.7,43.9,45,30.15,10.0,WSW,8.1,19.6,N/A,,Overcast,250,2013-06-20 14:53:00
11:14 AM,65.1,42.1,43,30.16,10.0,WSW,9.2,-,N/A,,Scattered Clouds,250,2013-06-20 15:14:00
11:34 AM,67.1,42.8,41,30.17,10.0,West,11.5,17.3,N/A,,Clear,260,2013-06-20 15:34:00
11:53 AM,66.6,42.1,41,30.16,10.0,WSW,10.4,18.4,N/A,,Scattered Clouds,240,2013-06-20 15:53:00
12:14 PM,66.9,41.4,39,30.17,10.0,WSW,12.7,19.6,N/A,,Scattered Clouds,250,2013-06-20 16:14:00
12:34 PM,67.3,40.8,38,30.17,10.0,WSW,13.8,20.7,N/A,,Clear,250,2013-06-20 16:34:00
12:53 PM,67.5,40.5,37,30.17,10.0,WSW,10.4,16.1,N/A,,Clear,250,2013-06-20 16:53:00
1:14 PM,67.8,39.6,36,30.17,10.0,WSW,10.4,17.3,N/A,,Clear,250,2013-06-20 17:14:00
1:34 PM,69.1,40.3,35,30.17,10.0,WSW,12.7,18.4,N/A,,Clear,250,2013-06-20 17:34:00
1:53 PM,69.8,41.9,36,30.17,10.0,WSW,9.2,-,N/A,,Clear,240,2013-06-20 17:53:00
2:14 PM,70.0,41.2,35,30.16,10.0,West,9.2,-,N/A,,Clear,260,2013-06-20 18:14:00
2:33 PM,70.0,40.6,34,30.16,10.0,West,12.7,-,N/A,,Clear,270,2013-06-20 18:33:00
2:54 PM,71.2,42.6,36,30.16,10.0,West,10.4,-,N/A,,Clear,260,2013-06-20 18:54:00
3:14 PM,72.1,43.9,36,30.16,10.0,West,13.8,19.6,N/A,,Scattered Clouds,270,2013-06-20 19:14:00
3:33 PM,71.8,44.2,37,30.15,10.0,West,10.4,-,N/A,,Scattered Clouds,260,2013-06-20 19:33:00
3:54 PM,72.5,45.9,39,30.15,10.0,West,9.2,-,N/A,,Clear,260,2013-06-20 19:54:00
4:14 PM,70.7,44.6,39,30.15,10.0,West,10.4,-,N/A,,Clear,260,2013-06-20 20:14:00
4:33 PM,70.3,45.3,41,30.15,10.0,West,8.1,-,N/A,,Scattered Clouds,260,2013-06-20 20:33:00
4:54 PM,70.9,47.8,44,30.14,10.0,WSW,3.5,-,N/A,,Mostly Cloudy,250,2013-06-20 20:54:00
5:14 PM,69.8,48.0,46,30.14,10.0,SW,8.1,-,N/A,,Overcast,230,2013-06-20 21:14:00
5:33 PM,67.1,43.7,43,30.14,10.0,SSW,8.1,-,N/A,,Overcast,210,2013-06-20 21:33:00
5:54 PM,63.9,47.5,55,30.14,10.0,SSW,3.5,-,N/A,,Overcast,210,2013-06-20 21:54:00
6:13 PM,64.8,46.8,52,30.14,10.0,Calm,Calm,-,N/A,,Overcast,0,2013-06-20 22:13:00
6:33 PM,66.6,48.7,53,30.14,10.0,Calm,Calm,-,N/A,,Mostly Cloudy,0,2013-06-20 22:33:00
6:54 PM,67.8,46.4,46,30.14,10.0,Calm,Calm,-,N/A,,Mostly Cloudy,0,2013-06-20 22:54:00
7:14 PM,67.6,46.0,46,30.13,10.0,ESE,3.5,-,N/A,,Scattered Clouds,110,2013-06-20 23:14:00
7:33 PM,67.5,47.7,49,30.13,10.0,ESE,6.9,-,N/A,,Clear,120,2013-06-20 23:33:00
7:54 PM,65.8,48.0,53,30.14,10.0,ESE,3.5,-,N/A,,Clear,120,2013-06-20 23:54:00
8:13 PM,66.2,48.2,52,30.14,10.0,ESE,5.8,-,N/A,,Scattered Clouds,120,2013-06-21 00:13:00
8:34 PM,66.2,47.1,50,30.15,10.0,ESE,5.8,-,N/A,,Mostly Cloudy,110,2013-06-21 00:34:00
8:54 PM,66.2,46.9,50,30.14,10.0,ESE,5.8,-,N/A,,Scattered Clouds,110,2013-06-21 00:54:00
9:13 PM,64.9,47.5,53,30.15,10.0,East,5.8,-,N/A,,Scattered Clouds,90,2013-06-21 01:13:00
9:34 PM,63.7,49.3,59,30.15,10.0,East,5.8,-,N/A,,Overcast,100,2013-06-21 01:34:00
9:54 PM,63.7,49.1,59,30.15,10.0,East,8.1,-,N/A,,Mostly Cloudy,80,2013-06-21 01:54:00
10:13 PM,62.1,51.8,69,30.16,10.0,East,6.9,-,N/A,,Overcast,100,2013-06-21 02:13:00
10:34 PM,62.2,51.1,67,30.16,10.0,East,5.8,-,N/A,,Scattered Clouds,100,2013-06-21 02:34:00
10:54 PM,60.4,52.3,75,30.16,10.0,ESE,4.6,-,N/A,,Mostly Cloudy,110,2013-06-21 02:54:00
11:13 PM,60.8,51.8,72,30.16,10.0,East,4.6,-,N/A,,Mostly Cloudy,100,2013-06-21 03:13:00
11:34 PM,59.9,52.2,76,30.16,10.0,Calm,Calm,-,N/A,,Scattered Clouds,0,2013-06-21 03:34:00
11:54 PM,58.6,52.9,81,30.16,10.0,Calm,Calm,-,N/A,,Scattered Clouds,0,2013-06-21 03:54:00